Theta_e
356 355 355 354 353 354 354 353 353 354 354 355 356 355 357 358 356 357 358 357 356 356 358 357 356 355 355 356 356 355 356 355 355 355 353 351 352 353 354 355 356 355
357 355 355 354 354 354 354 354 354 354 354 355 356 355 355 357 356 356 357 358 357 357 359 357 356 356 356 355 355 355 355 355 354 355 353 352 353 354 354 356 356 356
356 355 354 353 353 353 354 354 354 355 355 355 355 355 355 356 356 356 356 358 358 357 357 357 355 355 355 355 355 354 355 355 354 355 355 355 355 355 356 356 356 356
355 355 353 353 353 352 353 354 354 355 356 356 356 356 356 356 356 357 356 356 357 357 356 356 356 355 355 355 354 354 355 355 354 355 355 356 357 356 356 356 356 355
354 355 354 353 353 353 353 353 354 354 355 356 356 355 356 356 357 358 357 355 356 356 356 356 356 355 355 355 353 353 354 353 353 354 353 355 357 356 356 356 356 355
354 355 354 353 353 354 354 354 354 354 355 356 356 355 355 355 357 358 357 357 357 356 355 356 356 356 355 354 353 352 351 350 350 352 353 354 356 356 356 356 355 355
355 354 354 354 353 354 354 355 355 355 354 355 355 355 355 355 356 356 356 357 357 357 356 356 356 356 355 354 354 354 353 351 349 350 351 353 354 354 354 354 354 355
355 355 354 354 354 354 354 354 354 355 354 354 354 354 355 355 355 355 355 356 357 357 357 356 356 357 356 355 355 356 355 354 352 351 351 352 354 354 353 351 352 354
355 354 353 353 354 354 354 354 354 354 353 353 353 352 353 354 354 354 354 355 356 357 357 357 357 357 357 356 356 356 356 355 355 355 354 355 356 355 354 351 350 352
356 355 353 353 354 354 355 354 354 354 352 351 351 351 351 352 353 353 354 355 356 356 357 357 357 358 357 356 356 356 356 356 356 355 354 355 356 357 355 354 351 351
355 356 355 353 353 354 354 353 353 354 353 351 351 351 351 351 352 352 353 354 355 355 356 356 356 356 356 357 357 356 355 355 356 355 354 354 355 356 356 355 354 353
355 355 356 356 354 354 354 354 353 353 354 352 351 351 351 350 350 351 352 353 354 354 355 355 355 355 355 356 356 356 355 355 355 355 354 354 354 354 355 355 355 354
352 353 355 356 356 355 355 354 353 352 353 353 352 350 351 350 349 351 351 351 352 352 353 353 355 355 354 354 355 355 355 354 354 354 353 354 353 353 354 355 355 355
352 353 354 354 355 356 355 355 354 351 350 351 351 350 350 350 349 350 350 351 350 350 350 350 353 355 355 354 354 353 354 354 353 353 353 354 354 353 353 353 354 355
353 353 353 352 353 354 354 354 353 351 349 348 349 350 350 350 349 349 349 349 349 350 350 349 351 353 354 354 354 353 353 353 353 352 352 352 353 354 354 353 352 353
352 351 352 351 351 352 352 352 352 352 350 349 347 347 348 349 349 349 348 348 348 348 349 349 350 351 352 353 353 353 353 353 352 352 352 351 352 353 354 353 352 352
351 351 351 351 350 351 351 350 351 351 351 350 348 346 347 347 348 349 348 347 347 347 348 349 349 349 350 350 350 351 351 352 352 353 352 352 352 353 354 354 352 352
352 351 351 351 351 352 352 351 351 351 351 351 349 347 346 346 346 348 349 348 347 347 347 348 348 347 347 348 349 349 349 350 351 352 352 352 352 352 354 354 354 353
353 352 352 352 352 352 352 352 352 352 351 351 350 349 349 348 346 346 348 349 348 347 346 347 348 348 347 346 347 347 348 349 350 351 351 352 352 351 352 353 354 354
353 354 354 354 354 353 353 353 353 353 353 352 351 350 350 349 347 345 347 349 349 349 347 346 346 347 347 347 347 346 346 348 349 350 351 352 352 352 352 351 351 351
350 352 353 353 354 354 354 354 355 355 354 354 353 352 352 351 350 348 347 347 349 350 350 349 347 347 347 348 348 348 348 349 350 351 352 353 353 353 353 352 351 349
347 347 348 349 351 352 354 354 355 355 355 355 355 354 354 353 353 352 350 349 349 350 351 351 351 350 349 349 349 349 349 350 351 352 353 353 354 354 354 353 353 351
343 344 345 344 344 346 348 349 351 353 354 354 354 355 355 355 354 354 354 353 352 351 351 352 352 352 352 351 351 351 350 350 349 349 350 350 351 352 353 353 353 353
339 340 341 341 340 338 339 342 345 348 350 352 352 353 354 354 354 354 354 354 354 353 354 354 353 353 352 351 352 352 352 352 351 350 350 349 349 348 349 349 351 352
335 336 337 339 338 334 333 337 340 343 346 348 349 351 352 352 353 353 353 354 354 354 354 355 355 354 353 352 352 351 352 353 353 353 353 353 352 352 351 349 349 349
331 333 334 336 337 335 334 335 336 338 340 341 342 345 349 350 351 352 353 353 353 354 354 355 355 355 354 354 353 352 351 351 352 352 353 353 353 353 353 353 352 351
Wind_Speed
23 23 21 23 23 20 21 23 23 23 22 21 21 20 19 18 17 17 16 14 15 15 14 14 13 13 13 12 12 12 11 11 10 10 10 10 10 10 10 9 8 8
23 22 22 23 23 20 20 22 21 21 22 21 21 20 19 18 17 17 17 15 16 16 16 15 15 14 14 13 13 13 12 11 10 9 9 9 9 9 10 10 8 8
25 23 23 23 23 21 20 21 20 20 20 19 20 20 19 17 17 17 18 17 17 17 16 16 16 16 15 14 14 14 13 11 10 10 10 10 9 10 10 10 9 9
27 25 24 24 23 23 22 21 21 21 19 18 19 20 20 19 17 18 19 19 19 18 17 17 16 16 16 15 14 15 14 12 10 10 11 11 10 10 10 10 10 10
29 27 25 24 23 23 23 23 22 22 21 20 20 20 21 20 19 19 19 20 21 20 18 17 17 16 16 16 15 15 14 13 12 11 12 11 11 11 10 10 11 11
30 28 27 26 24 22 23 23 22 21 23 22 20 19 20 21 20 19 19 19 21 21 18 17 17 16 16 17 16 15 15 14 13 13 13 13 12 12 11 11 11 11
30 29 27 27 26 25 24 23 22 22 22 22 22 21 21 21 21 21 20 18 20 21 18 17 17 16 16 16 16 16 15 14 13 13 14 14 13 12 11 12 12 12
30 30 29 27 27 27 26 25 24 23 22 22 23 23 22 22 22 22 22 21 21 21 19 18 18 18 17 17 16 16 15 14 14 14 15 15 15 13 12 12 13 13
29 29 29 28 27 27 27 27 26 25 24 24 24 23 23 23 23 23 24 24 23 22 21 20 19 19 19 18 17 17 16 15 14 14 15 15 15 15 13 13 13 14
26 28 29 29 29 28 28 28 27 26 26 26 25 24 24 25 25 24 24 25 26 24 23 22 21 20 20 20 19 18 17 16 15 15 15 16 16 16 15 14 14 16
20 24 27 29 29 28 28 28 28 27 27 27 26 26 26 26 26 26 25 25 26 26 24 23 22 22 22 22 21 20 18 17 16 16 16 16 16 17 17 17 16 17
21 21 24 26 28 28 27 27 27 27 27 27 27 27 27 27 27 28 28 27 27 26 25 24 22 22 23 24 24 23 21 19 18 18 18 18 18 18 18 19 18 18
24 21 22 25 28 28 27 26 24 23 26 27 28 28 28 28 28 29 30 31 30 28 27 26 24 22 22 23 24 25 24 23 21 20 20 20 20 20 19 19 19 19
24 23 22 23 26 27 26 26 23 20 21 25 28 29 29 29 29 29 30 31 31 31 29 27 26 25 24 24 25 25 25 25 24 23 22 22 22 22 21 21 21 20
21 22 23 23 25 26 25 25 24 20 18 20 24 26 29 30 30 29 29 31 32 32 31 30 28 27 26 25 26 26 26 26 27 26 25 24 23 23 23 23 23 23
17 18 20 21 23 26 26 24 24 21 19 19 21 23 25 28 29 29 29 30 32 33 33 32 31 30 29 28 28 27 27 27 28 28 27 26 25 25 26 26 26 25
13 15 17 19 21 24 26 25 25 23 21 22 22 23 23 24 27 29 29 29 30 32 34 34 33 32 32 31 30 30 30 29 29 29 29 28 28 28 28 28 28 27
10 12 13 15 18 20 22 24 23 23 23 24 25 26 25 24 25 27 29 31 30 30 33 35 35 35 34 33 32 31 32 32 32 32 31 31 30 30 30 29 28 28
7 10 11 13 15 18 20 21 22 23 24 24 25 26 24 25 26 25 25 27 29 29 30 33 35 36 35 34 33 33 33 33 33 33 32 32 32 32 32 31 30 29
4 6 7 8 11 13 15 17 19 19 20 21 22 22 21 22 25 25 22 21 22 24 26 29 33 35 35 35 35 34 33 34 34 34 33 32 32 32 32 32 32 32
8 7 6 3 3 6 7 9 11 11 12 14 15 16 17 18 20 23 24 21 19 18 18 20 23 28 30 32 33 34 34 33 33 33 33 33 33 33 33 33 33 33
9 8 8 7 4 1 1 2 3 4 5 7 8 10 12 13 14 17 20 21 20 18 15 14 14 16 18 22 26 29 32 34 34 33 33 31 31 31 32 33 34 35
11 9 8 7 6 4 3 3 3 2 2 3 4 6 7 9 11 13 15 17 17 17 15 14 12 12 13 14 16 19 23 27 29 31 31 32 32 32 31 31 32 34
11 10 8 7 7 6 5 4 5 4 3 3 3 5 6 7 9 11 12 13 14 15 15 13 12 13 15 15 16 16 16 18 20 22 23 25 27 29 31 32 33 33
9 7 6 5 7 8 7 4 4 4 3 3 3 4 4 5 7 9 10 10 11 12 13 13 13 14 17 19 19 18 17 17 18 20 21 21 22 23 26 29 32 34
9 8 8 7 8 10 10 6 4 4 4 3 2 2 2 3 4 5 7 8 8 9 10 11 12 15 18 20 20 19 19 18 18 20 23 25 26 26 27 29 30 32
Wind_Direction
198 201 202 200 202 206 205 204 204 205 206 207 209 211 213 215 217 217 217 215 213 213 216 222 226 226 225 224 225 225 229 236 235 231 229 226 231 233 235 246 258 266
203 205 203 199 202 204 200 201 203 204 208 211 213 215 215 217 220 220 219 216 212 214 220 225 227 225 223 224 226 227 229 233 232 231 232 231 232 235 235 243 260 269
206 208 205 204 204 204 201 201 203 205 209 213 215 217 217 219 222 222 220 218 217 219 221 226 229 227 226 227 228 228 227 232 235 235 238 238 238 238 237 245 263 269
206 207 207 208 207 207 205 204 206 209 211 215 216 217 219 221 225 226 222 221 224 224 223 226 229 229 229 229 227 226 227 232 238 238 239 241 243 243 241 250 263 266
207 208 208 209 210 209 209 209 211 213 213 217 219 219 219 219 223 227 225 225 227 226 224 226 228 229 231 231 229 228 228 231 236 236 236 240 245 248 249 256 265 265
208 210 210 211 212 211 210 212 214 215 214 218 222 222 219 216 219 224 225 226 226 223 225 227 227 229 231 231 232 232 230 232 234 232 232 237 242 246 251 261 268 268
209 212 213 213 214 214 213 213 216 218 216 217 221 225 223 218 218 222 223 223 220 220 225 230 229 229 231 233 235 235 233 233 234 232 232 237 243 246 250 260 268 270
209 212 214 215 217 218 217 216 217 219 220 219 222 225 226 222 221 223 224 223 220 221 226 231 232 232 233 235 237 238 237 235 236 236 236 240 245 249 253 258 263 267
210 212 214 215 217 220 221 221 221 221 223 224 226 226 225 225 225 227 227 225 223 223 225 229 233 234 234 236 240 243 243 241 241 242 242 245 249 253 257 259 257 259
207 212 214 215 217 219 222 223 224 225 226 227 229 229 228 228 228 229 230 227 223 223 225 228 230 232 234 237 241 245 248 247 246 247 249 252 256 260 262 261 256 254
199 207 212 213 214 216 220 223 226 229 230 229 231 231 232 232 231 230 230 227 223 223 225 227 230 232 233 236 240 243 246 248 249 252 254 256 259 264 266 266 260 254
198 204 207 209 211 212 214 220 225 230 232 230 231 233 234 235 235 233 231 228 226 226 227 229 231 231 231 234 239 242 244 246 247 251 255 256 258 260 264 267 264 258
202 207 206 208 211 211 212 214 218 227 231 229 229 232 234 236 238 236 233 231 231 231 231 232 232 230 230 232 236 239 241 242 243 247 250 253 255 257 259 262 262 260
211 216 216 215 213 212 212 212 211 217 226 225 225 228 231 234 237 238 237 235 235 236 236 236 234 231 230 231 234 236 237 239 241 243 246 249 252 254 256 258 259 258
216 221 225 226 220 216 215 214 211 213 222 226 225 226 229 231 234 238 240 238 238 238 238 238 236 234 233 234 235 235 236 238 239 241 244 247 250 252 254 257 259 258
214 220 226 228 225 224 224 223 222 222 225 230 229 227 228 230 231 235 239 241 241 239 237 237 236 236 236 237 238 238 238 239 239 240 242 244 248 250 252 255 258 258
206 213 222 226 226 227 229 229 232 234 236 239 238 233 231 231 232 233 236 239 241 240 238 236 235 236 238 239 240 240 240 240 240 241 241 242 245 248 251 255 256 257
207 210 219 226 227 228 229 229 233 236 239 242 241 237 237 238 235 233 235 237 239 240 239 237 237 238 239 240 241 241 241 241 242 243 244 244 246 248 251 255 257 258
203 210 218 226 230 231 230 229 230 231 232 235 236 237 241 242 236 232 232 235 237 240 240 238 238 239 240 241 242 243 243 242 242 244 245 246 248 249 251 253 256 258
122 166 192 213 223 227 228 229 230 232 231 232 233 235 240 242 237 233 233 235 237 240 241 241 241 240 240 241 243 245 245 244 243 245 246 248 249 250 251 252 254 255
65 81 93 112 186 214 224 230 234 240 240 238 236 236 239 242 240 236 236 238 239 239 239 239 240 240 241 242 243 245 246 244 243 243 244 248 251 252 253 253 254 255
48 51 57 53 46 47 209 215 232 245 247 243 241 242 243 246 246 242 240 241 242 244 242 237 233 233 235 237 239 241 242 242 241 241 241 244 248 251 253 255 256 256
37 34 38 35 21 15 32 31 12 343 305 269 248 242 242 242 245 247 246 246 246 249 252 251 245 239 235 232 233 235 238 240 240 242 243 245 248 249 251 254 256 257
29 21 20 8 348 352 15 11 357 351 334 309 279 259 252 247 247 248 248 250 251 252 254 257 257 254 250 246 242 241 241 240 240 241 244 248 251 252 252 253 255 256
20 10 4 344 329 344 11 15 350 351 351 328 300 280 269 260 256 253 250 250 253 256 257 257 256 255 255 254 253 252 252 252 249 245 245 248 253 256 257 257 257 257
9 359 344 335 329 338 353 1 351 344 348 340 320 300 286 271 263 261 259 258 258 259 260 258 255 255 256 256 256 255 257 259 257 253 253 255 257 258 260 261 262 262